RH
79 79 81 70 66 50 40 32 23 28 33 31 30 24 17 17 16 14 14 15 17 16 12 5 4 8 11 12 14 16 17 18 17 18 18 18 18 19 18 18 18 18 18
66 83 80 68 56 43 33 27 23 26 30 27 24 19 18 18 15 14 14 16 18 16 9 4 4 9 12 13 15 18 20 21 21 20 19 20 20 18 18 18 18 17 17
49 58 55 51 42 34 27 24 21 25 30 25 24 21 19 17 14 14 15 18 18 14 6 4 6 10 12 15 18 20 20 21 20 18 22 25 25 22 22 22 22 21 20
36 41 48 37 29 26 24 24 21 24 29 24 22 20 18 16 14 16 18 20 18 10 5 5 9 13 16 21 20 17 17 19 22 23 23 25 26 26 26 27 27 26 24
27 33 32 28 27 28 27 24 22 26 28 23 19 18 17 15 16 18 22 19 11 6 5 7 12 19 21 17 16 18 21 23 25 26 29 30 32 33 33 34 34 33 32
26 26 27 29 30 32 29 26 25 29 28 21 19 17 16 16 20 23 19 10 6 6 11 18 19 17 17 18 22 25 28 33 37 40 41 41 40 41 42 42 42 41 40
27 30 32 33 35 34 32 29 29 27 21 18 16 16 17 22 24 20 12 6 8 18 21 20 19 20 24 28 32 37 42 45 48 50 51 50 50 50 49 48 48 48 47
30 32 33 34 34 34 32 31 28 23 18 16 16 18 22 24 19 10 7 12 24 26 23 22 26 30 35 40 47 52 55 57 59 61 61 60 60 57 57 57 57 55 53
31 32 33 34 36 35 31 28 24 18 17 17 21 25 23 15 8 10 22 28 24 25 30 35 40 47 53 58 62 66 68 70 72 74 75 76 74 72 71 70 68 67 62
30 31 33 35 33 30 25 20 17 17 20 24 25 19 10 13 23 26 26 28 34 40 47 54 60 64 68 72 77 82 83 83 81 77 76 75 75 72 72 69 65 61 55
27 31 34 33 30 26 21 18 19 22 26 24 13 14 26 27 29 34 39 46 54 62 68 72 78 83 89 90 87 82 76 72 70 68 62 57 62 56 55 56 48 46 43
32 34 33 30 24 20 18 21 26 26 16 13 25 27 30 38 46 55 63 71 75 80 88 93 93 89 83 78 73 67 60 55 52 49 48 47 46 45 44 44 44 42 40
31 28 25 21 19 20 25 26 18 15 25 28 32 42 51 59 67 74 79 87 94 96 90 84 76 68 63 61 61 60 60 56 50 43 38 36 36 34 36 35 36 37 36
23 22 20 22 28 26 17 20 28 28 34 45 54 60 69 77 84 92 97 96 89 81 73 69 68 69 67 62 55 52 49 42 34 30 28 27 27 27 27 26 25 25 24
21 24 27 24 17 24 28 29 37 47 54 62 72 80 89 98 100 96 89 84 79 77 78 79 79 81 81 69 49 37 33 29 26 24 23 22 22 20 20 20 20 20 20
26 18 20 26 28 39 48 54 59 66 74 82 92 100 100 91 87 87 87 87 90 93 92 89 76 61 52 45 34 28 25 22 19 17 16 16 16 17 20 26 30 36 46
26 28 34 45 52 57 62 71 79 85 92 97 97 91 90 90 94 97 98 95 86 79 72 66 58 45 34 28 23 20 18 16 16 16 16 17 20 24 30 36 41 47 50
48 54 59 64 68 75 82 88 94 96 98 97 97 97 97 96 91 81 77 76 71 61 51 40 32 25 20 18 17 15 14 12 11 11 13 15 15 15 18 18 18 19 19
63 68 74 80 83 87 94 98 98 97 94 96 96 90 82 78 77 73 67 60 49 42 35 28 21 18 15 14 12 10 10 11 11 11 10 9 9 11 13 13 12 11 11
75 79 86 93 97 100 99 98 96 93 94 86 79 78 78 75 66 57 52 46 36 27 21 16 14 13 11 10 11 19 27 32 38 37 32 23 23 25 26 31 29 21 21
93 99 99 97 95 92 90 90 90 82 78 77 79 78 69 59 57 51 38 31 23 16 14 11 9 9 12 19 24 23 21 24 32 54 52 41 47 53 55 52 38 33 33
99 97 94 89 88 89 88 79 74 75 81 82 71 62 58 53 42 34 27 19 15 12 10 11 13 14 16 14 10 11 19 26 39 78 75 69 71 72 68 71 74 59 39
87 87 88 89 87 85 82 86 88 85 74 65 59 53 49 42 35 25 18 14 11 12 15 17 13 10 8 9 15 16 22 40 63 100 100 100 97 90 87 89 89 90 93
92 94 92 90 89 86 90 88 79 67 61 55 54 51 43 33 25 18 13 12 22 24 23 17 10 9 13 16 19 25 36 62 87 100 100 100 100 100 100 100 100 100 100
88 89 91 92 94 97 88 75 66 59 57 58 54 42 31 23 18 11 12 24 33 30 25 15 11 15 15 23 33 59 92 100 100 100 100 100 100 100 100 100 100 100 100
86 88 96 100 96 83 75 70 66 66 63 53 39 29 22 16 11 12 25 36 37 37 34 25 20 22 27 37 57 80 96 100 100 100 100 100 100 98 100 98 96 94 97
Wind_Speed
36 34 35 36 36 37 37 36 35 33 34 34 34 35 36 37 36 34 36 38 40 41 40 39 34 30 29 29 30 31 32 33 33 32 32 32 33 33 34 34 35 35 35
38 38 37 37 37 37 37 38 37 37 36 37 36 37 38 38 35 36 38 40 43 43 42 40 34 33 33 34 35 37 38 37 37 37 36 36 36 37 38 38 37 36 36
40 39 38 38 39 39 39 40 40 39 39 39 39 39 39 38 37 38 41 44 45 44 43 40 36 38 39 40 40 41 41 41 41 42 42 43 43 42 42 41 39 37 36
39 39 40 40 40 40 41 42 41 41 41 41 41 41 40 39 40 41 45 46 46 45 43 39 40 43 44 44 44 44 44 45 46 46 47 48 48 48 49 48 46 43 39
40 40 41 40 41 42 43 43 43 42 43 43 42 43 41 41 42 46 48 47 47 46 43 42 46 48 47 48 47 48 49 50 50 50 52 52 53 53 53 51 51 50 46
42 41 42 42 43 44 44 45 45 45 44 44 44 41 42 44 48 49 48 49 48 45 46 49 49 50 50 51 52 53 54 54 54 55 56 57 58 57 57 56 55 53 52
42 43 44 44 45 46 47 46 46 45 44 42 40 43 46 49 51 50 51 50 48 50 51 51 53 55 56 57 57 58 58 59 60 60 62 62 62 62 61 61 58 56 54
44 46 46 47 48 48 47 46 45 44 41 42 45 48 51 52 52 53 52 52 54 54 55 58 59 60 61 61 62 63 64 65 65 66 66 66 67 66 65 64 63 60 57
46 48 48 49 48 47 45 44 43 43 44 47 50 53 53 54 54 54 55 56 57 60 61 62 63 64 65 66 67 68 69 69 69 69 69 69 68 68 67 66 65 64 61
47 48 47 46 44 42 41 41 43 46 49 52 53 55 55 55 56 58 59 61 62 64 66 67 68 69 70 72 72 73 72 71 70 70 69 69 69 68 69 68 68 67 66
47 46 44 42 41 42 43 45 48 51 53 54 55 55 56 57 60 62 64 66 68 68 69 70 72 73 73 74 73 72 71 70 70 70 70 70 71 71 71 71 71 71 72
44 42 41 41 43 45 48 50 52 53 54 55 55 57 61 62 65 67 68 69 70 72 73 73 73 72 71 71 71 72 73 73 73 74 74 75 76 77 77 78 78 78 78
40 41 42 45 47 50 51 52 54 54 54 56 60 61 65 67 68 69 71 73 73 73 73 71 70 70 72 73 74 75 76 77 78 79 80 80 81 81 81 82 82 81 81
41 44 46 47 49 51 52 52 52 56 59 61 64 67 68 69 71 72 73 74 73 72 72 74 75 76 76 77 77 79 81 82 82 82 82 83 84 84 85 85 84 85 86
44 46 48 50 50 51 52 56 58 61 64 66 68 69 70 71 72 72 71 72 73 75 77 78 79 80 81 82 83 84 85 86 87 88 89 89 88 88 88 87 87 87 87
46 47 47 49 52 55 57 60 63 65 67 69 70 70 70 70 68 70 72 74 76 78 80 81 82 82 84 86 88 91 93 94 95 94 93 92 89 87 85 85 87 90 91
46 50 52 55 57 60 62 63 65 67 68 69 68 66 67 69 71 74 76 78 79 80 82 83 86 87 88 90 93 95 97 97 94 90 87 86 85 85 86 87 88 91 91
51 54 56 59 61 63 64 65 66 66 65 64 65 67 69 72 73 75 78 80 82 84 85 86 88 92 94 96 96 96 94 91 86 82 80 82 81 81 84 87 87 85 84
56 58 60 61 62 63 63 63 64 64 65 65 68 70 72 74 76 78 80 82 85 86 89 92 94 98 99 95 89 86 84 81 76 71 68 68 67 65 67 70 69 66 64
57 58 59 60 61 61 61 62 62 63 66 68 70 73 75 77 78 80 82 86 89 92 95 98 99 96 92 87 84 82 81 77 73 66 61 58 57 55 53 54 54 53 49
59 61 61 60 61 62 63 64 65 66 68 71 72 74 76 78 81 84 87 90 93 97 99 97 91 87 84 83 83 80 78 75 71 64 54 51 48 46 45 45 45 43 41
57 58 60 61 61 61 62 65 67 69 71 72 73 75 78 82 86 88 91 94 96 93 87 84 84 82 80 78 75 70 66 63 61 56 50 48 47 46 46 47 46 44 42
58 58 59 59 61 62 64 66 68 70 72 74 76 79 82 85 88 91 94 92 84 81 81 82 79 74 72 70 63 58 53 50 50 52 51 49 48 46 45 45 44 44 45
58 58 59 61 63 65 66 67 70 72 74 76 79 81 83 85 88 91 87 77 75 77 79 75 71 68 61 55 48 43 41 39 41 45 47 46 45 44 44 44 44 44 45
60 61 62 64 64 65 67 70 72 74 76 78 79 81 84 86 86 77 70 69 70 73 71 65 62 56 49 42 37 33 32 34 36 39 40 40 41 42 43 43 44 45 45
62 62 63 64 66 69 71 72 73 75 76 76 78 80 82 81 74 65 61 61 63 62 61 57 52 47 43 37 33 30 30 32 34 36 38 39 41 42 42 42 43 44 43
Wind_Direction
252 252 259 266 271 276 280 284 286 284 282 283 287 290 294 298 302 304 306 308 308 307 306 304 301 296 297 297 298 299 299 300 302 303 302 303 301 301 303 306 310 310 310
250 252 258 264 269 274 279 284 286 286 286 286 290 292 294 298 302 303 305 305 304 304 303 301 293 293 294 295 295 297 299 301 302 301 299 299 297 299 300 302 304 306 308
249 254 260 265 269 275 279 282 286 287 287 287 289 291 295 300 301 301 301 301 302 302 302 299 292 294 294 294 295 296 298 299 300 300 301 301 301 300 299 299 299 299 300
252 257 262 266 270 275 278 282 286 287 288 288 290 292 296 298 298 297 297 299 301 301 299 294 292 293 294 296 297 297 297 297 297 298 299 299 300 299 299 299 298 297 295
255 259 263 267 270 274 278 282 285 286 288 289 290 294 296 296 294 294 297 300 300 297 294 292 294 295 296 295 295 294 293 293 294 295 295 295 295 295 295 295 295 294 293
256 259 263 266 270 273 277 280 283 286 289 290 293 295 295 292 292 295 299 298 296 294 294 294 294 292 291 291 292 293 294 295 294 293 293 292 292 292 292 292 292 293 293
255 259 263 266 269 273 276 280 284 288 291 293 291 290 288 289 293 296 295 294 293 292 291 291 292 293 294 294 294 293 292 292 291 291 291 290 290 290 289 289 288 288 288
258 261 264 267 270 274 279 284 287 290 291 288 286 287 288 291 292 292 292 291 292 294 295 295 294 293 293 292 293 292 292 291 291 290 289 289 289 289 288 288 286 285 286
259 262 265 269 273 277 281 285 288 288 285 283 284 288 290 290 292 292 292 294 295 295 294 294 294 294 293 292 292 291 291 290 289 289 289 288 287 287 287 286 285 285 285
259 263 266 270 276 281 284 284 282 281 282 284 287 289 290 291 293 295 295 294 295 296 295 294 294 294 294 293 292 292 292 292 291 290 289 288 287 286 285 285 285 284 283
261 264 269 276 280 281 281 280 280 281 283 286 288 290 293 295 294 295 295 295 294 294 294 294 294 293 293 293 293 293 293 292 291 290 290 289 287 286 285 284 284 284 284
263 270 275 279 279 278 278 280 282 285 287 288 291 292 294 295 295 294 293 294 294 294 294 294 294 294 295 295 294 293 293 292 292 291 290 289 288 287 286 284 283 283 282
271 273 275 274 275 277 280 282 284 287 289 291 292 293 293 293 292 293 294 294 294 295 295 296 296 296 295 294 293 293 293 293 292 292 291 289 288 287 285 284 282 281 280
271 272 274 276 279 281 284 286 288 290 292 292 293 292 292 293 294 295 295 296 297 299 299 299 298 297 296 296 295 295 294 293 292 291 291 290 289 287 285 284 282 280 279
273 275 278 281 285 286 288 290 291 291 291 291 292 293 294 296 296 297 298 299 300 299 299 298 297 297 298 297 296 294 294 294 293 292 291 290 288 286 285 283 281 278 276
280 282 284 285 287 288 288 289 290 290 291 293 294 295 296 296 298 299 300 299 299 299 299 300 299 298 297 297 297 296 295 294 293 291 290 289 286 283 279 274 272 270 268
282 283 284 284 286 287 288 289 291 291 292 293 295 297 299 300 301 301 300 300 300 300 299 299 299 299 298 298 297 296 296 295 293 291 288 284 281 278 275 273 271 270 271
280 282 284 286 287 288 290 290 291 293 295 297 299 300 301 302 301 301 301 301 301 301 300 300 301 301 301 301 299 297 294 291 289 286 283 280 280 279 278 277 276 275 275
283 284 285 287 289 291 292 293 295 297 300 301 301 302 302 302 302 302 302 303 302 303 303 303 303 302 302 300 297 294 291 290 290 290 288 287 285 283 280 280 281 280 280
287 289 290 291 292 294 296 298 300 301 301 302 302 303 303 303 303 304 304 304 306 305 304 304 304 304 303 300 297 295 292 290 289 289 288 287 287 286 284 283 283 282 281
292 294 296 297 298 299 299 299 300 301 302 302 302 302 304 304 305 305 307 307 307 307 307 308 308 306 304 299 296 294 291 288 285 284 284 285 286 286 285 287 288 286 281
293 294 295 296 296 297 297 298 300 301 302 303 304 305 305 306 308 309 309 309 309 310 310 310 309 307 303 300 299 296 291 287 283 281 280 281 282 284 284 285 284 283 279
292 292 293 294 295 296 297 300 301 302 303 304 306 307 309 310 310 311 312 313 313 312 313 313 311 308 305 304 300 296 291 286 280 277 277 280 281 282 282 282 282 280 278
293 293 294 296 297 299 300 300 301 303 305 307 308 309 310 311 312 313 315 314 314 315 317 316 313 310 309 307 303 298 293 288 283 280 280 282 282 282 282 281 280 279 278
294 295 296 297 298 298 299 302 304 305 306 308 309 311 312 313 315 316 315 316 318 320 321 318 316 315 315 312 309 303 297 294 291 288 287 286 284 283 282 281 280 278 277
294 295 295 296 297 299 301 302 304 306 307 309 311 313 314 315 315 314 315 318 320 323 324 326 327 325 324 323 319 313 305 300 295 293 291 288 287 286 284 283 282 281 279